Погода в Бале

Россия / Республика Саха (Якутия)     67°10′48″N   132°49′59″E
темп.,
°C
ветер,
м/с
пор.,
м/с
влажн.,
%
обл.,
%
осадки,
мм/ч
давл.,
гПа
погр.,
м
3 марта, ср
ср301:00−39ссз119963 0.0 102619
04:00−38ссз119976 0.0 102519
07:00−37ссз119899 0.0 102419
10:00−35ссз119499 0.0 102362
13:00−33с2291100 0.0 1020261
16:00−32с2391100 0.1 1019326
19:00−34ссв1199100 0.1 101919
22:00−34ссв33100100 0.1 101931
4 марта, чт
чт401:00−36с2399100 0.1 102031
04:00−36ссз2398100 0.1 1020156
07:00−37ссз1299100 0.1 102042
10:00−36ссз1196100 0.3 1021121
13:00−34с1287100 0.1 1022352
16:00−32юв0186100 0.1 1022291
19:00−33ю1297100 0.1 102419
22:00−32юз2298100 0.1 102420
5 марта, пт
пт501:00−31юз2298100 0.1 102519
04:00−31юз1299100 0.2 102619
07:00−30юз1199100 0.1 102619
10:00−28зюз1198100 0.1 102671
13:00−26зсз1290100 0.1 1025334
16:00−25сз2388100 0.1 1025473
19:00−27ссз1297100 0.1 102619
22:00−29сз2293100 0.1 102719
6 марта, сб
сб601:00−29сз2288100 0.0 102719
04:00−29сз1288100 0.0 102819
07:00−29сз1292100 0.0 102819
10:00−28сз1193100 0.0 102864
13:00−26сз228999 0.0 1027312
16:00−25с128899 0.1 1026371
19:00−28св0099100 0.0 102619
22:00−29з019999 0.0 102719
7 марта, вс
вс701:00−31зюз0199100 0.0 102519
04:00−32юз119999 0.0 102519
07:00−33ююз1198100 0.0 102519
10:00−30ююз1191100 0.0 102521
13:00−27ююз1181100 0.0 1023214
16:00−25ю1183100 0.0 1022254
19:00−29ююв1193100 0.0 102319
22:00−30юв119599 0.0 102319